GW3580 Weather Reports


Display with metric or nautical units.
time (UTC)temp
F
wind
direction
speed
MPH
gust
MPH
rain 1hr
in
rain 24hr
in
rain mn
in
humidity
%
barometer
mb
20260506091022 54 244 1.0 1.0 0.00 0.00 0.00 85 1017.1
20260506090520 54 252 0.0 0.0 0.00 0.00 0.00 85 1017.2
20260506090016 53 310 0.0 0.0 0.00 0.00 0.00 84 1017.5
20260506085513 54 309 0.0 0.0 0.00 0.00 0.00 84 1017.5
20260506085009 54 16 0.0 0.0 0.00 0.00 0.00 84 1017.6
20260506084506 53 7 0.0 0.0 0.00 0.00 0.00 83 1017.7
20260506084002 53 7 0.0 0.0 0.00 0.00 0.00 83 1017.6
20260506083500 54 7 0.0 0.0 0.00 0.00 0.00 83 1017.5
20260506082957 54 7 0.0 0.0 0.00 0.00 0.00 82 1017.5
20260506082454 54 20 0.0 0.0 0.00 0.00 0.00 82 1017.5
20260506081949 54 21 0.0 0.0 0.00 0.00 0.00 82 1017.3
20260506081448 54 20 0.0 0.0 0.00 0.00 0.00 82 1017.6
20260506080945 54 20 0.0 0.0 0.00 0.00 0.00 81 1017.4
20260506080442 55 20 0.0 0.0 0.00 0.00 0.00 81 1017.6
20260506073426 55 276 0.0 0.0 0.00 0.00 0.00 80 1017.2
20260506072923 56 275 0.0 0.0 0.00 0.00 0.00 80 1017.1
20260506072420 56 338 1.0 1.0 0.00 0.00 0.00 80 1017.2
20260506071918 55 34 0.0 0.0 0.00 0.00 0.00 80 1016.9
20260506071416 55 27 0.0 0.0 0.00 0.00 0.00 79 1017.1
20260506070912 55 29 0.0 0.0 0.00 0.00 0.00 79 1017.1
20260506070409 56 29 0.0 0.0 0.00 0.00 0.00 79 1017.0
20260506062347 57 28 0.0 0.0 0.00 0.00 0.00 78 1016.4
20260506061842 57 28 0.0 0.0 0.00 0.00 0.00 78 1016.5
20260506061339 57 28 0.0 0.0 0.00 0.00 0.00 78 1016.7
20260506060837 57 119 0.0 0.0 0.00 0.00 0.00 78 1016.3
20260506060335 57 119 0.0 0.0 0.00 0.00 0.00 77 1016.3
20260506051307 59 309 0.0 0.0 0.00 0.00 0.00 74 1016.0
20260506050805 59 351 0.0 0.0 0.00 0.00 0.00 73 1015.9
20260506050302 59 254 0.0 0.0 0.00 0.00 0.00 73 1016.1
20260506044752 59 8 0.0 0.0 0.00 0.00 0.00 72 1015.9
20260506044250 59 30 0.0 0.0 0.00 0.00 0.00 72 1015.8
20260506043747 59 295 0.0 0.0 0.00 0.00 0.00 72 1015.7
20260506043244 60 274 1.0 1.0 0.00 0.00 0.00 71 1015.7
20260506042743 60 287 1.0 1.0 0.00 0.00 0.00 72 1015.5
20260506042241 59 58 0.0 0.0 0.00 0.00 0.00 73 1015.7
20260506041739 59 59 0.0 0.0 0.00 0.00 0.00 72 1015.7
20260506041236 59 59 0.0 0.0 0.00 0.00 0.00 71 1015.2
20260506040733 59 59 0.0 0.0 0.00 0.00 0.00 71 1015.3
20260506040230 60 59 0.0 0.0 0.00 0.00 0.00 70 1015.1
20260506035727 60 59 0.0 0.0 0.00 0.00 0.00 69 1015.2
20260506035224 60 59 0.0 0.0 0.00 0.00 0.00 68 1015.2
20260506034721 60 59 0.0 0.0 0.00 0.00 0.00 68 1015.0
20260506034218 60 59 0.0 0.0 0.00 0.00 0.00 67 1014.9
20260506033715 60 59 0.0 0.0 0.00 0.00 0.00 66 1014.7
20260506033212 60 60 0.0 0.0 0.00 0.00 0.00 65 1014.8
20260506032709 61 60 0.0 0.0 0.00 0.00 0.00 65 1014.8
20260506032206 61 60 0.0 0.0 0.00 0.00 0.00 64 1014.6
20260506031703 61 60 0.0 0.0 0.00 0.00 0.00 63 1014.5
20260506031200 62 57 0.0 1.0 0.00 0.00 0.00 62 1014.4
20260506030658 62 63 1.0 1.0 0.00 0.00 0.00 62 1014.3
20260506030155 62 53 0.0 0.0 0.00 0.00 0.00 61 1014.5
20260506025646 63 86 1.0 1.0 0.00 0.00 0.00 60 1014.3
20260506025142 63 23 0.0 0.0 0.00 0.00 0.00 59 1014.4
20260506024640 64 38 1.0 1.0 0.00 0.00 0.00 59 1014.2
20260506024136 64 358 0.0 0.0 0.00 0.00 0.00 59 1014.3
20260506023633 64 54 2.0 2.0 0.00 0.00 0.00 59 1014.0
20260506023130 64 17 0.0 0.0 0.00 0.00 0.00 58 1014.1
20260506022627 64 329 0.0 0.0 0.00 0.00 0.00 57 1014.1
20260506022125 65 329 1.0 1.0 0.00 0.00 0.00 55 1013.9
20260506021622 65 28 1.0 1.0 0.00 0.00 0.00 54 1013.9
20260506021119 66 43 0.0 0.0 0.00 0.00 0.00 53 1013.9
20260506020616 66 43 0.0 0.0 0.00 0.00 0.00 52 1013.9
20260506020114 66 52 0.0 1.0 0.00 0.00 0.00 51 1013.9
20260506015611 67 58 1.0 1.0 0.00 0.00 0.00 50 1013.8
20260506015108 68 342 1.0 1.0 0.00 0.00 0.00 50 1013.6
20260506014606 67 11 0.0 0.0 0.00 0.00 0.00 49 1013.9
20260506014101 67 327 1.0 1.0 0.00 0.00 0.00 50 1013.8
20260506013559 67 9 1.0 1.0 0.00 0.00 0.00 50 1013.7
20260506013056 67 75 1.0 2.0 0.00 0.00 0.00 50 1013.7
20260506012552 67 150 1.0 1.0 0.00 0.00 0.00 49 1013.6
20260506012049 67 18 4.0 5.0 0.00 0.00 0.00 49 1013.9
20260506011547 67 62 2.0 2.0 0.00 0.00 0.00 49 1013.8
20260506011043 67 248 1.0 1.0 0.00 0.00 0.00 48 1013.9
20260506010542 67 300 1.0 1.0 0.00 0.00 0.00 49 1013.8
20260506010038 67 281 1.0 1.0 0.00 0.00 0.00 48 1013.7
20260506005535 67 34 1.0 1.0 0.00 0.00 0.00 49 1013.9
20260506005031 67 66 1.0 2.0 0.00 0.00 0.00 48 1013.9
20260506004529 67 53 1.0 1.0 0.00 0.00 0.00 49 1013.9
20260506004025 68 234 1.0 2.0 0.00 0.00 0.00 49 1013.8
20260506003522 68 270 1.0 1.0 0.00 0.00 0.00 49 1013.6
20260506003018 67 24 0.0 0.0 0.00 0.00 0.00 48 1013.7
20260506002514 68 229 3.0 4.0 0.00 0.00 0.00 47 1013.8
20260506002010 69 288 1.0 1.0 0.00 0.00 0.00 45 1014.0
20260506001506 69 307 3.0 4.0 0.00 0.00 0.00 45 1013.6
20260506001004 69 45 1.0 1.0 0.00 0.00 0.00 46 1013.6
20260506000501 69 232 0.0 0.0 0.00 0.00 0.00 46 1013.7
20260505235958 70 257 4.0 5.0 0.00 0.00 0.00 45 1013.9
20260505235456 69 248 1.0 1.0 0.00 0.00 0.00 45 1013.8
20260505234953 69 35 0.0 0.0 0.00 0.00 0.00 45 1013.9
20260505234450 71 281 1.0 2.0 0.00 0.00 0.00 46 1013.7
20260505233947 69 24 1.0 1.0 0.00 0.00 0.00 45 1013.8
20260505233444 70 292 7.0 7.0 0.00 0.00 0.00 44 1013.9
20260505232942 69 143 0.0 1.0 0.00 0.00 0.00 47 1013.9
20260505232440 69 271 3.0 5.0 0.00 0.00 0.00 48 1013.8
20260505231936 69 290 6.0 7.0 0.00 0.00 0.00 46 1013.9
20260505231433 69 259 3.0 5.0 0.00 0.00 0.00 45 1013.9
20260505230932 70 31 2.0 4.0 0.00 0.00 0.00 44 1013.7
20260505230429 70 263 2.0 4.0 0.00 0.00 0.00 42 1014.0
20260505225925 68 280 4.0 5.0 0.00 0.00 0.00 47 1014.0
20260505225423 67 29 2.0 2.0 0.00 0.00 0.00 48 1014.0
20260505224918 68 255 5.0 6.0 0.00 0.00 0.00 47 1013.8
20260505224416 69 303 2.0 2.0 0.00 0.00 0.00 45 1013.9
20260505223912 69 271 5.0 6.0 0.00 0.00 0.00 44 1013.8
20260505223409 70 261 5.0 7.0 0.00 0.00 0.00 45 1014.1
20260505222905 70 261 3.0 4.0 0.00 0.00 0.00 45 1014.1
20260505222402 69 276 2.0 4.0 0.00 0.00 0.00 46 1014.0
20260505221858 68 257 5.0 6.0 0.00 0.00 0.00 45 1014.1
20260505221355 68 219 5.0 6.0 0.00 0.00 0.00 45 1014.1
20260505220853 70 276 1.0 1.0 0.00 0.00 0.00 45 1013.9
20260505220349 68 294 5.0 6.0 0.00 0.00 0.00 45 1013.9
20260505215847 69 261 3.0 4.0 0.00 0.00 0.00 45 1014.0
20260505215345 71 280 5.0 6.0 0.00 0.00 0.00 44 1014.3
20260505214843 70 5 2.0 2.0 0.00 0.00 0.00 42 1014.1
20260505214340 69 298 2.0 2.0 0.00 0.00 0.00 43 1014.2
20260505213837 69 240 2.0 4.0 0.00 0.00 0.00 45 1014.1
20260505213335 69 253 5.0 6.0 0.00 0.00 0.00 44 1014.4
20260505212831 68 248 5.0 6.0 0.00 0.00 0.00 45 1014.2
20260505212328 68 273 4.0 6.0 0.00 0.00 0.00 43 1014.2
20260505211824 67 265 4.0 5.0 0.00 0.00 0.00 45 1014.1
20260505211322 68 280 6.0 8.0 0.00 0.00 0.00 44 1014.3
20260505210818 69 273 6.0 7.0 0.00 0.00 0.00 41 1014.1
20260505210315 68 289 5.0 6.0 0.00 0.00 0.00 42 1014.1
20260505205812 69 125 1.0 1.0 0.00 0.00 0.00 42 1014.4
20260505205310 68 265 7.0 7.0 0.00 0.00 0.00 43 1014.4
20260505204807 68 279 3.0 4.0 0.00 0.00 0.00 44 1014.4
20260505204305 68 245 3.0 5.0 0.00 0.00 0.00 43 1014.2
20260505203802 67 266 4.0 5.0 0.00 0.00 0.00 43 1014.4
20260505203258 66 279 4.0 5.0 0.00 0.00 0.00 43 1014.4
20260505202754 66 236 3.0 4.0 0.00 0.00 0.00 44 1014.4
20260505202251 67 278 6.0 7.0 0.00 0.00 0.00 44 1014.3
20260505201747 68 249 6.0 7.0 0.00 0.00 0.00 43 1014.4
20260505201245 68 226 2.0 4.0 0.00 0.00 0.00 44 1014.4
20260505200743 68 225 3.0 4.0 0.00 0.00 0.00 45 1014.3
20260505200240 67 253 2.0 4.0 0.00 0.00 0.00 48 1014.4
20260505195729 68 257 1.0 4.0 0.00 0.00 0.00 48 1014.5
20260505195227 65 321 2.0 2.0 0.00 0.00 0.00 50 1014.2
20260505194724 65 282 6.0 8.0 0.00 0.00 0.00 49 1014.5
20260505194221 67 283 3.0 5.0 0.00 0.00 0.00 48 1014.8
20260505193717 65 227 3.0 4.0 0.00 0.00 0.00 48 1014.6
20260505193214 65 305 6.0 7.0 0.00 0.00 0.00 50 1014.4
20260505192713 65 279 2.0 4.0 0.00 0.00 0.00 52 1014.6
20260505192209 64 251 4.0 5.0 0.00 0.00 0.00 52 1014.5
20260505191707 64 239 2.0 4.0 0.00 0.00 0.00 55 1014.5
20260505191205 64 266 4.0 5.0 0.00 0.00 0.00 54 1014.6
20260505190701 63 267 4.0 5.0 0.00 0.00 0.00 57 1014.7
20260505190156 63 251 5.0 6.0 0.00 0.00 0.00 56 1014.8
20260505185653 64 249 4.0 5.0 0.00 0.00 0.00 55 1014.9
20260505185149 63 32 1.0 2.0 0.00 0.00 0.00 58 1014.8
20260505184645 63 274 5.0 6.0 0.00 0.00 0.00 57 1014.8
20260505184143 62 280 5.0 7.0 0.00 0.00 0.00 57 1015.0
20260505183639 62 245 5.0 5.0 0.00 0.00 0.00 57 1014.8
20260505183137 62 250 2.0 2.0 0.00 0.00 0.00 58 1015.0
20260505182633 62 288 4.0 5.0 0.00 0.00 0.00 59 1015.0
20260505182130 63 249 3.0 5.0 0.00 0.00 0.00 58 1015.0
20260505181626 62 311 1.0 2.0 0.00 0.00 0.00 59 1015.0
20260505181124 62 278 5.0 6.0 0.00 0.00 0.00 60 1015.0
20260505180620 61 273 4.0 6.0 0.00 0.00 0.00 61 1014.9
20260505180118 61 33 2.0 4.0 0.00 0.00 0.00 61 1014.9
20260505175613 61 243 4.0 5.0 0.00 0.00 0.00 61 1014.8
20260505175110 61 247 3.0 4.0 0.00 0.00 0.00 61 1014.7
20260505174607 61 256 5.0 6.0 0.00 0.00 0.00 62 1014.6
20260505174103 60 239 2.0 2.0 0.00 0.00 0.00 62 1014.6
20260505173600 60 269 3.0 4.0 0.00 0.00 0.00 62 1014.6
20260505173056 59 329 1.0 2.0 0.00 0.00 0.00 63 1014.3
20260505172554 60 239 3.0 4.0 0.00 0.00 0.00 63 1014.4
20260505172051 61 265 4.0 6.0 0.00 0.00 0.00 63 1014.2
20260505171545 60 246 4.0 5.0 0.00 0.00 0.00 64 1014.3
20260505171043 59 259 2.0 2.0 0.00 0.00 0.00 66 1014.3
20260505170539 59 280 2.0 2.0 0.00 0.00 0.00 67 1014.5
20260505170036 58 272 0.0 1.0 0.00 0.00 0.00 68 1014.5
20260505165531 58 246 5.0 6.0 0.00 0.00 0.00 68 1014.6
20260505165027 58 253 2.0 2.0 0.00 0.00 0.00 68 1014.4
20260505164523 58 230 2.0 2.0 0.00 0.00 0.00 70 1014.3
20260505164021 57 282 2.0 2.0 0.00 0.00 0.00 71 1014.4
20260505163519 57 262 2.0 2.0 0.00 0.00 0.00 71 1014.2
20260505163016 56 271 5.0 6.0 0.00 0.00 0.00 72 1014.1
20260505162509 56 250 4.0 5.0 0.00 0.00 0.00 73 1014.2
20260505162006 55 273 5.0 6.0 0.00 0.00 0.00 73 1014.0
20260505161503 55 292 3.0 4.0 0.00 0.00 0.00 75 1014.0
20260505161000 55 19 0.0 0.0 0.00 0.00 0.00 75 1014.2
20260505160458 55 262 1.0 1.0 0.00 0.00 0.00 76 1014.3
20260505152934 54 261 0.0 0.0 0.00 0.00 0.00 78 1014.1
20260505152432 54 303 2.0 2.0 0.00 0.00 0.00 78 1014.2
20260505151931 54 357 1.0 1.0 0.00 0.00 0.00 78 1014.0
20260505151422 54 247 1.0 2.0 0.00 0.00 0.00 79 1014.0
20260505150920 54 284 1.0 2.0 0.00 0.00 0.00 79 1013.9
20260505150416 54 260 3.0 4.0 0.00 0.00 0.00 79 1013.8
20260505140346 53 263 2.0 2.0 0.00 0.00 0.00 81 1013.4
20260505130309 53 4 1.0 2.0 0.00 0.00 0.00 83 1013.1
20260505124800 53 238 2.0 2.0 0.00 0.00 0.00 83 1013.1
20260505124257 53 259 2.0 2.0 0.00 0.00 0.00 83 1013.0
20260505123752 53 266 1.0 1.0 0.00 0.00 0.00 83 1012.9
20260505123249 53 233 2.0 2.0 0.00 0.00 0.00 82 1013.1
20260505122745 53 266 1.0 2.0 0.00 0.00 0.00 82 1013.1
20260505122243 53 264 2.0 4.0 0.00 0.00 0.00 82 1013.1
20260505121739 53 270 1.0 1.0 0.00 0.00 0.00 82 1013.2
20260505121236 53 243 3.0 4.0 0.00 0.00 0.00 82 1013.0
20260505120732 53 193 1.0 2.0 0.00 0.00 0.00 82 1012.9
20260505120229 53 275 3.0 4.0 0.00 0.00 0.00 82 1012.9
20260505115727 53 242 3.0 5.0 0.00 0.00 0.00 82 1013.1
20260505115225 53 220 2.0 2.0 0.00 0.00 0.00 82 1013.0
20260505114722 53 263 5.0 9.0 0.00 0.00 0.00 82 1013.0
20260505114218 53 257 3.0 4.0 0.00 0.00 0.00 82 1012.9
20260505113715 54 263 1.0 2.0 0.00 0.00 0.00 82 1012.9
20260505113212 54 261 4.0 5.0 0.00 0.00 0.00 81 1013.0
20260505112708 54 233 2.0 2.0 0.00 0.00 0.00 81 1012.9
20260505112206 54 266 1.0 2.0 0.00 0.00 0.00 80 1012.9
20260505111705 54 255 4.0 5.0 0.00 0.00 0.00 80 1013.0
20260505111202 54 259 3.0 5.0 0.00 0.00 0.00 79 1013.0
20260505110658 55 267 3.0 5.0 0.00 0.00 0.00 79 1012.9
20260505110155 55 264 3.0 5.0 0.00 0.00 0.00 78 1012.9
20260505102131 56 263 3.0 5.0 0.00 0.00 0.00 74 1012.8
20260505101629 56 239 3.0 4.0 0.00 0.00 0.00 74 1013.0
20260505101125 56 253 3.0 4.0 0.00 0.00 0.00 74 1012.9
20260505100621 56 196 4.0 5.0 0.00 0.00 0.00 74 1012.9
20260505100119 56 277 3.0 4.0 0.00 0.00 0.00 74 1012.9
20260505095615 56 258 2.0 2.0 0.00 0.00 0.00 74 1013.0
20260505095111 57 239 3.0 4.0 0.00 0.00 0.00 74 1012.9
20260505094608 57 277 3.0 4.0 0.00 0.00 0.00 74 1012.8
20260505094104 57 238 3.0 4.0 0.00 0.00 0.00 74 1012.9
20260505093600 57 272 2.0 2.0 0.00 0.00 0.00 74 1013.0
20260505093058 57 269 5.0 6.0 0.00 0.00 0.00 74 1013.0
20260505092555 57 241 3.0 5.0 0.00 0.00 0.00 74 1013.1
20260505092054 57 264 3.0 4.0 0.00 0.00 0.00 73 1013.1
20260505091550 57 254 3.0 4.0 0.00 0.00 0.00 74 1012.9